Location: East Guldeford
(50.9500°N, 0.7500°E)
Time: 13:41:27
(UTC+00:00)

Daily predictions for brighter satellites

Satellite Brightness Start Highest point End
(mag) Time Altitude Azimuth Time Altitude Azimuth Time Altitude Azimuth
Cosmos 1844 Rocket 3.0 20:06:44 10° SW 20:12:18 74° WNW 20:17:56 10° NNE
Cosmos 2084 3.9 20:11:01 10° SSW 20:14:51 38° SE 20:18:48 10° ENE
Cosmos 1503 Rocket 4.0 20:09:57 10° SSW 20:15:06 73° ESE 20:20:21 10° NNE
Cosmos 1151 Rocket 3.4 20:11:24 10° SSE 20:15:35 47° E 20:19:48 10° NNE
Cosmos 2315 Rocket 4.3 20:12:15 10° SSE 20:18:25 55° E 20:24:38 10° NNE
Ariane Rocket 3.5 20:16:41 10° S 20:21:41 61° WSW 20:26:43 10° NNW
Cosmos 1782 3.0 20:18:10 10° S 20:22:02 52° E 20:25:56 10° NNE
ATLAS 5 CENTAUR R/B 3.2 20:20:28 10° NW 20:25:46 45° SW 20:31:56 10° SSE
SOZ 4.3 20:23:01 10° WSW 20:25:49 62° SSE 20:28:01 10° ENE
Gbstr 26 Del rocket 4.5 20:18:23 10° W 20:26:24 84° N 20:33:19 10° E
USA 305 2.9 20:23:42 10° WNW 20:27:59 82° SSW 20:32:16 10° ESE
Resurs 01 Rocket 1.7 20:27:03 10° SSE 20:31:30 81° WSW 20:35:58 10° NNW
NOSS 3-4 (A) 4.0 20:26:22 10° NW 20:33:07 68° NE 20:40:43 10° ESE
Intercosmos 24 4.2 20:29:36 10° SSW 20:33:10 62° WNW 20:36:54 10° N
NOSS 3-4 (C) 4.0 20:26:28 10° NW 20:33:14 67° NE 20:40:49 10° ESE
OBJECT-B 3.5 20:33:23 10° SW 20:35:45 19° W 20:38:07 10° NW
IGS 5A 3.5 20:32:14 10° SSE 20:36:23 82° WSW 20:40:34 10° NNW
Cosmos 1812 3.4 20:33:00 10° SSE 20:36:31 35° E 20:40:03 10° NNE
X-37B 2.9 20:37:26 10° SW 20:39:05 13° SSW 20:40:44 10° S
Cosmos 1666 3.4 20:36:41 10° N 20:40:12 38° ENE 20:43:16 13° SE
Terra 3.1 20:37:19 10° ESE 20:41:20 28° ENE 20:45:22 10° N
NOSS 3-3 (A) 3.9 20:38:24 10° SSW 20:44:10 69° SE 20:50:49 10° NE
NOSS 3-3 (C) 3.9 20:38:31 10° SSW 20:44:17 69° SE 20:50:55 10° NE
Cosmos 1833 Rocket 2.7 20:39:52 10° NNW 20:45:34 89° WSW 20:50:56 12° SSE
ATLAS 2AS CENTAUR R/B 3.3 20:39:07 10° NW 20:46:34 56° NE 20:53:26 10° ESE
USA 306 3.0 20:43:07 10° WNW 20:47:22 68° SSW 20:51:02 14° SE
Cosmos 1354 Rocket 4.3 20:43:44 10° SSW 20:48:57 73° WNW 20:54:14 10° NNE
ERBS 3.9 20:47:12 10° NW 20:50:12 31° N 20:53:12 10° ENE
Cosmos 1515 Rocket 3.8 20:46:27 10° SSE 20:50:42 50° E 20:54:57 10° NNE
SPOT 5 3.6 20:47:38 12° SE 20:52:06 47° ENE 20:57:12 10° N
Meteor 1-5 Rocket 4.1 20:46:45 10° N 20:52:10 74° ENE 20:57:12 11° SSE
Iridium 4 Rocket 4.2 20:47:25 10° SSE 20:52:53 47° E 20:58:31 10° NNE
Cosmos 1633 Rocket 3.8 20:50:21 10° NNW 20:54:39 53° W 20:58:56 10° S
USA 215 4.1 20:48:55 10° ENE 20:55:14 53° N 21:01:33 10° WNW
SPOT 1/Viking Rocket 3.6 20:52:25 10° SSE 20:57:38 86° WSW 21:02:51 10° NNW
Cosmos 158 Rocket 4.0 20:55:20 10° NNW 21:00:12 63° ENE 21:04:06 16° SE
Cosmos 1536 3.9 21:00:02 10° N 21:03:41 31° ENE 21:06:10 17° SE
Cosmos 1328 Rocket 3.9 21:02:11 10° SSW 21:06:36 70° WNW 21:11:01 10° N
Cosmos 1470 Rocket 3.9 21:03:33 10° NNW 21:08:01 66° W 21:12:28 10° S
CZ-4C R/B 3.4 21:02:15 10° NW 21:09:15 58° SW 21:16:26 14° SSE
Cosmos 1500 3.9 21:06:40 10° NNW 21:10:19 49° W 21:13:56 10° S
USA 307 3.3 21:10:13 10° WNW 21:14:22 51° SSW 21:17:05 20° SE
CARTOSAT-1 3.6 21:13:16 16° SSE 21:16:45 87° W 21:21:06 10° NNW
JB-3 4.3 21:13:08 10° NNE 21:17:00 59° E 21:20:00 16° S
ARIANE 5 R/B 2.6 21:15:27 15° S 21:18:59 77° WSW 21:23:21 10° NNW
Cosmos 1538 Rocket 4.4 21:14:25 10° NNW 21:19:44 62° WSW 21:24:07 15° S
Cosmos 1933 Rocket 3.7 21:17:50 10° NNW 21:22:11 70° W 21:25:43 15° S
H-2A R/B 4.3 21:19:19 10° NNE 21:23:08 33° E 21:25:07 22° SE
Cosmos 2082 Rocket 2.2 21:22:03 10° NNW 21:27:42 82° WSW 21:31:43 20° SSE
USA 308 3.5 21:23:55 10° WNW 21:27:59 43° SW 21:30:15 23° SSE
Spot 2 Rocket 3.8 21:24:51 14° S 21:29:12 62° WSW 21:34:14 10° NNW
Cosmos 2154 Rocket 4.1 21:25:57 10° N 21:32:18 72° ENE 21:36:54 20° SSE
ERS-1 Rocket 3.0 21:30:08 18° SSE 21:33:53 82° WSW 21:38:57 10° NNW
Cosmos 1680 Rocket 3.6 21:30:32 10° NNW 21:35:52 70° ENE 21:39:16 23° SE
COSMOS 2406 4.2 21:31:54 10° NW 21:37:09 40° WSW 21:41:39 14° S
SJ 16-02 1.3 21:33:38 10° SSW 21:38:05 88° WNW 21:42:34 10° NNE
BREEZE-M DEB (TANK) 1.6 21:36:35 10° W 21:38:32 40° SSW 21:38:36 40° S
Cosmos 2184 Rocket 4.1 21:33:19 10° NNW 21:39:32 75° W 21:44:35 16° S
USA 245 4.5 21:40:02 12° SW 21:41:13 17° W 21:42:50 10° NW
SL-24 R/B - RUBIN 2 4.1 21:36:13 10° NW 21:41:53 77° NE 21:45:04 23° SE
Cosmos 1733 Rocket 4.1 21:38:14 10° N 21:42:09 32° ENE 21:44:08 22° ESE
Cosmos 2074 Rocket 4.3 21:36:35 10° NNW 21:42:52 69° W 21:48:07 15° S
Cosmos 1271 Rocket 2.9 21:40:32 15° SSW 21:43:48 79° WNW 21:47:51 10° N
SL-24 DEB 4.2 21:42:27 24° SSE 21:45:11 72° E 21:49:48 10° N
Nadezhda 1 Rocket 4.0 21:44:00 17° S 21:49:01 74° E 21:55:14 10° NNE
Cosmos 2278 Rocket 2.6 21:49:00 10° SW 21:54:37 66° WNW 22:00:17 10° NNE
Cosmos 1943 Rocket 3.0 21:54:26 25° SE 21:56:28 32° ESE 22:01:23 10° NE
Meteor 1-27 Rocket 3.8 21:52:03 18° S 21:56:33 79° E 22:02:30 10° NNE
Cosmos 1818 3.7 21:54:03 10° NW 21:59:34 72° NE 22:02:55 24° SE
Cosmos 2369 Rocket 3.6 22:01:38 19° ESE 22:02:43 20° E 22:06:45 10° NE
Cosmos 2084 Rocket 3.4 22:00:28 10° NW 22:04:44 81° NE 22:06:47 31° SE
USA 305 4.3 22:04:05 10° W 22:07:30 23° SW 22:08:26 22° SSW
Resurs 01 Rocket 4.4 22:07:32 10° W 22:08:43 11° W 22:09:55 10° WNW
Cosmos 2228 Rocket 3.5 22:07:20 18° SSW 22:10:35 62° WNW 22:15:03 10° N
BREEZE-M R/B 1.7 22:08:12 10° W 22:10:37 68° S 22:10:39 68° S
Cosmos 1898 Rocket 3.5 22:10:32 25° S 22:13:36 64° ESE 22:18:53 10° NNE
Gbstr 26 Del rocket 4.1 22:06:21 10° WNW 22:13:57 77° SSW 22:18:36 20° ESE
Cosmos 2181 Rocket 4.4 22:11:57 27° SE 22:14:55 46° E 22:20:44 10° NNE
Cosmos 2366 rocket 4.3 22:12:06 10° N 22:18:10 56° ENE 22:21:28 27° SE
Terra 2.5 22:16:11 23° SSW 22:18:54 46° W 22:23:30 10° NNW
Cosmos 1340 Rocket 3.2 22:19:18 10° NNW 22:23:21 59° W 22:24:53 34° SSW
Cosmos 990 Rocket 4.0 22:19:50 19° SSW 22:23:36 90° NW 22:28:54 10° NNE
Okean 1 3.5 22:23:54 42° SE 22:24:50 53° E 22:28:45 10° NNE
Cosmos 44 3.7 22:20:29 10° NW 22:25:50 59° WSW 22:28:04 33° S
ERBS 2.1 22:23:18 10° WNW 22:26:38 87° NNE 22:27:12 58° ESE
Cosmos 1862 Rocket 3.8 22:27:33 39° SE 22:28:44 52° E 22:32:57 10° NNE
Cosmos 2341 Rocket 4.0 22:22:48 10° N 22:29:14 86° W 22:32:47 29° S
SPOT 5 4.5 22:26:51 15° SSW 22:30:20 31° W 22:35:01 10° NNW
Cosmos 489 Rocket 4.4 22:26:37 10° NNW 22:32:53 83° ENE 22:36:08 31° SSE
Cosmos 1743 3.2 22:30:27 10° NNW 22:34:13 54° W 22:35:25 37° SSW
ATLAS 2AS CENTAUR R/B 3.2 22:30:29 10° NW 22:37:33 51° WSW 22:40:56 29° S
USA 215 3.7 22:31:23 10° E 22:37:49 64° NNE 22:44:17 10° WNW
Meteor 2-4 Rocket 4.5 22:35:54 29° SE 22:37:57 38° E 22:43:05 10° NNE
Cosmos 1536 4.4 22:36:33 10° NNW 22:40:01 28° W 22:41:52 19° SW
Cosmos 2218 Rocket 4.0 22:35:48 10° N 22:42:07 82° E 22:45:17 32° SSE
Spot 4 3.9 22:42:00 38° SSE 22:43:53 77° ENE 22:48:46 10° NNW
Okean 1-7 4.2 22:43:30 26° ESE 22:44:10 27° E 22:47:46 10° NNE
Cosmos 1707 Rocket 4.1 22:49:38 28° SW 22:51:44 54° WNW 22:56:05 10° N
Cosmos 2297 3.7 22:50:42 20° SW 22:54:44 80° WNW 23:00:27 10° NNE
Cosmos 1867 4.4 22:54:35 31° SE 22:55:13 32° ESE 23:00:00 10° NE
Cosmos 1975 2.7 22:51:47 10° N 22:55:47 89° E 22:56:35 56° S
DNEPR-1 R/B 3.9 22:54:02 22° SSW 22:57:45 78° SE 23:02:38 10° NE
RESURS DK-1 2.8 22:56:02 10° NNW 23:00:09 57° NE 23:01:28 38° ESE
ALOS 2 2.7 23:01:54 44° SE 23:03:10 67° ENE 23:07:32 10° N
SL-8 Rocket 4.2 22:57:03 10° NNW 23:03:18 64° W 23:06:26 31° SSW
Cosmos 1238 Rocket 4.2 22:58:45 10° NNW 23:04:47 55° W 23:07:16 31° SSW
SAR-Lupe-2 4.4 23:04:23 10° NNE 23:07:39 37° E 23:07:39 37° E
Cosmos 2082 Rocket 4.3 23:07:49 10° WNW 23:10:54 15° W 23:13:35 11° SW
Cosmos 1461 3.0 23:11:46 43° SSW 23:13:15 76° SE 23:17:53 10° NE
Meteor 1-18 Rocket 4.2 23:10:52 34° SSW 23:13:27 81° WNW 23:19:04 10° N
Cosmos 1378 4.4 23:13:26 28° E 23:13:30 28° E 23:16:43 10° NNE
Cosmos 1937 Rocket 3.9 23:11:18 23° SW 23:14:26 60° WNW 23:19:36 10° NNE
SJ 16-02 4.1 23:14:40 10° W 23:17:22 16° NW 23:20:04 10° N
COBE Rocket 4.0 23:16:37 40° SSE 23:18:26 75° ENE 23:23:36 10° N
Cosmos 1733 Rocket 4.3 23:16:07 10° NNW 23:19:54 30° W 23:21:13 25° WSW
SL-08 R/B 4.4 23:17:25 10° N 23:23:41 87° W 23:26:24 37° S
Cosmos 2344 4.3 23:18:30 10° NW 23:27:25 84° NE 23:39:42 10° SE
Cosmos 1048 Rocket 3.9 23:22:03 10° NNW 23:27:25 83° WSW 23:29:11 43° SSE
Cosmos 2242 Rocket 3.5 23:31:02 54° S 23:32:03 86° E 23:36:33 10° N
Cosmos 1908 Rocket 4.0 23:31:36 10° NNW 23:35:59 53° W 23:36:59 43° SW
Cosmos 1300 Rocket 4.4 23:31:48 10° N 23:36:02 42° ENE 23:37:19 33° ESE
ATLAS CENTAUR R/B 2.1 23:40:13 34° E 23:40:13 34° E 23:43:06 10° NE
Cosmos 1943 Rocket 2.8 23:35:53 18° SW 23:40:00 53° NW 23:45:30 10° NNE
Nimbus 7 Rocket 4.4 23:34:11 10° NNE 23:40:04 69° ESE 23:42:19 39° S
Thor Agena Rocket 3.9 23:35:19 10° NNE 23:40:29 55° ESE 23:42:03 40° SSE
Okean 2 Rocket 4.0 23:38:40 10° N 23:42:50 40° ENE 23:44:14 31° ESE
Cosmos 2298 Rocket 4.0 23:42:47 44° S 23:44:27 74° ESE 23:49:45 10° NNE
BREEZE-M DEB (TANK) 4.2 23:32:20 10° WNW 23:45:38 49° SW 23:47:07 39° S
Cosmos 2369 Rocket 2.2 23:43:22 32° SW 23:46:05 79° WNW 23:51:48 10° NNE
Cosmos 1733 4.0 23:43:23 10° N 23:46:59 40° ENE 23:47:40 36° ESE
Meteor 1-15 Rocket 4.5 23:42:27 10° N 23:48:06 63° ENE 23:50:39 33° SE
SL-27 R/B 2.5 23:46:45 10° NNW 23:49:44 61° WNW 23:49:44 61° WNW
EO 1 Del DPAF 4.2 23:50:31 10° NNE 23:53:54 32° E 23:54:03 32° ESE
